Hourly Data Report for July 04, 2022

MOUNT FOREST (AUT)
ONTARIO
Current Station Operator: ECCC - MSC

43°59'00.000" N
80°45'00.000" W
414.50 m
6145504
71631
WLS

Download Data

Hourly Data (July 2022)
Hourly Data Report for July 4, 2022
TIME
LST
Temp Definition
°C
Dew Point Definition
°C
Rel Hum Definition
%
Precip. Amount Definition
mm

Wind Dir Definition
10's deg

Wind Spd Definition
km/h
Visibility Definition
km
Stn Press Definition
kPa
Hmdx Definition


Wind Chill Definition


Weather Definition


00:00 13.5 9.7 78 0.0 0 1   97.27     LegendNANA
01:00 12.6 9.8 83 0.0 12 2   97.27     LegendNANA
02:00 12.1 8.8 80 0.0 15 2   97.26     LegendNANA
03:00 12.0 8.3 78 0.0 9 1   97.25     LegendNANA
04:00 11.5 8.9 84 0.0 12 2   97.29     LegendNANA
05:00 11.4 8.4 82 0.0 0 1   97.28     LegendNANA
06:00 12.9 8.7 75 0.0 13 3   97.29     LegendNANA
07:00 17.1 10.3 64 0.0 11 2   97.32     LegendNANA
08:00 20.8 10.4 51 0.0 13 3   97.27     LegendNANA
09:00 22.8 11.2 48 0.0 18 4   97.28 25   LegendNANA
10:00 24.0 12.0 47 0.0 21 7   97.24 26   LegendNANA
11:00 25.0 11.8 44 0.0 23 8   97.21 27   LegendNANA
12:00 24.3 11.7 45 0.0 23 7   97.22 26   LegendNANA
13:00 24.3 12.7 48 0.0 24 6   97.21 27   LegendNANA
14:00 24.1 12.2 47 0.0 34 3   97.14 26   LegendNANA
15:00 24.0 12.6 49 0.0 13 2   97.11 27   LegendNANA
16:00 25.4 13.4 47 0.0 12 4   97.05 28   LegendNANA
17:00 25.2 14.4 51 0.0 19 8   97.00 29   LegendNANA
18:00 25.0 14.4 52 0.0 21 9   96.99 29   LegendNANA
19:00 24.4 14.9 56 0.0 20 6   96.98 28   LegendNANA
20:00 23.2 16.0 64 0.0 15 4   96.96 28   LegendNANA
21:00 21.8 16.5 72 0.0 16 8   96.93 27   LegendNANA
22:00 21.4 16.7 75 0.0 16 9   96.90 26   LegendNANA
23:00 21.0 16.4 75 0.0 16 10   96.81 26   LegendNANA

Notes on Data Quality.

Legend

  • E = Estimated
  • M = Missing
  • NA = Not Available*
  • [empty] = Indicates an unobserved value
Date modified: